Regional Weather Roundup
Issued by NWS Cleveland, OH

Home | Current Version | Previous Version | Graphics & Text | Print | Product List | Glossary On
Versions: 1 2 3 4 5 6 7 8 9 10 11 12 13 14 15 16 17 18 19 20 21 22 23 24 25 26 27 28 29 30 31 32 33 34 35 36 37 38 39 40 41 42 43 44 45 46 47 48 49 50
000
ASUS41 KCLE 290010
RWRCLE
OHIO REGIONAL WEATHER ROUNDUP
NATIONAL WEATHER SERVICE WILMINGTON, OH
700 PM EST FRI NOV 28 2014

NOTE: "FAIR" INDICATES FEW OR NO CLOUDS BELOW 12,000 FEET WITH NO
SIGNIFICANT WEATHER AND/OR OBSTRUCTIONS TO VISIBILITY.

OHZ001>008-015>018-024>027-034-035-043-044-290100-
   NORTHWEST OHIO

CITY           SKY/WX    TMP DP  RH WIND       PRES   REMARKS
DEFIANCE       MOCLDY    30  21  69 S7        30.12F WCI  23
FINDLAY        MOCLDY    31  21  66 S12       30.13F WCI  22
TOLEDO EXPRESS CLOUDY    27  21  78 VRB3      30.14F
TOLEDO METCALF CLOUDY    28  22  78 SE10      30.16F WCI  19
LIMA           CLOUDY    32  20  61 S15       30.12F WCI  22
$$

OHZ009>014-019>023-028>033-038-089-290100-
   NORTHEAST OHIO

CITY           SKY/WX    TMP DP  RH WIND       PRES   REMARKS
CLE-HOPKINS    LGT SNOW  26  21  81 S7        30.22F WCI  18
CLE-LAKEFRONT  CLOUDY    28  19  69 S10       30.20F WCI  19
CUY CO. ARPT   CLOUDY    28  21  74 S9        30.20F WCI  20
LORAIN-ELYRIA  CLOUDY    25  22  88 S7        30.19F WCI  17
ASHTABULA      MOCLDY    23  13  65 S6        30.22S WCI  16
AKRON-CANTON   FLURRIES  27  18  69 S10       30.19F WCI  17
WOOSTER        LGT SNOW  25  21  85 S7        30.19F FOG     WCI  17
MANSFIELD      MOCLDY    26  21  81 SE10      30.15F WCI  16
YOUNGSTOWN     PTCLDY    24  15  68 S5        30.20S WCI  18
$$

OHZ042-051>053-060>062-070>072-077>081-290100-
  SOUTHWEST OHIO

CITY           SKY/WX    TMP DP  RH WIND       PRES   REMARKS
CINC-COVINGTON MOCLDY    32  16  51 SE12      30.15F WCI  23
CINC-LUNKEN    MOCLDY    32  18  56 S6        30.20F WCI  26
HAMILTON       MOCLDY    34  17  50 VRB6      30.18F WCI  29
DAYTON         CLOUDY    33  18  53 S15       30.13F WCI  23
WRIGHT-PAT AFB CLOUDY    32  18  55 S10       30.14F WCI  24
DAYTON GENERAL CLOUDY    31  19  61 S13       30.14F WCI  21
WILMINGTON     CLOUDY    30  19  63 S10       30.16F WCI  21
$$

OHZ036-037-039>041-045>050-054>059-063>069-073>076-082>088-290100-
  CENTRAL AND SOUTHEAST OHIO

CITY           SKY/WX    TMP DP  RH WIND       PRES   REMARKS
COLUMBUS       CLOUDY    31  17  56 SE9       30.19F WCI  23
OSU AIRPORT    CLOUDY    31  19  61 S12       30.18F WCI  22
BOLTON FIELD   CLOUDY    29  21  71 SE7       30.19F WCI  22
RICKENBACK AFB CLOUDY    29  19  68 SE5       30.20F WCI  23
NEWARK         CLOUDY    30  17  58 S5        30.20F WCI  25
MARION         CLOUDY    30  21  69 S9        30.16F WCI  22
LANCASTER      CLOUDY    30  17  58 SE6       30.21F WCI  24
ZANESVILLE     MOCLDY    29  16  58 SE5       30.21F WCI  24
NEW PHILLY     CLOUDY    29  18  63 SW7       30.23F WCI  22
$$



USA.gov is the U.S. government's official web portal to all federal, state and local government web resources and services.